This is the latest recevied weather packets stored in our database for station/object DL1DH-17. If no packets are shown the sender has not sent any weather packets the latest 10 day(s).
| Time | Temp. | Humidity | Pressure | Rain* | Wind** | Luminosity | Snow |
|---|---|---|---|---|---|---|---|
| 1777842516 | 16.67° C | 39% | 975.4 hPa | - | - | - | - |
| 1777841676 | 16.67° C | 39% | 975.1 hPa | - | - | - | - |
| 1777840836 | 17.22° C | 39% | 974.8 hPa | - | - | - | - |
| 1777839996 | 17.22° C | 40% | 974.7 hPa | - | - | - | - |
| 1777839156 | 17.22° C | 40% | 974.7 hPa | - | - | - | - |
| 1777838316 | 17.22° C | 40% | 974.6 hPa | - | - | - | - |
| 1777837476 | 17.78° C | 39% | 974.3 hPa | - | - | - | - |
| 1777836636 | 17.78° C | 40% | 974.1 hPa | - | - | - | - |
| 1777835796 | 17.78° C | 40% | 973.9 hPa | - | - | - | - |
| 1777834956 | 18.33° C | 39% | 973.8 hPa | - | - | - | - |
| 1777834116 | 18.33° C | 38% | 973.7 hPa | - | - | - | - |
| 1777833275 | 18.89° C | 38% | 973.7 hPa | - | - | - | - |
| 1777832435 | 19.44° C | 38% | 973.6 hPa | - | - | - | - |
| 1777831595 | 19.44° C | 39% | 973.6 hPa | - | - | - | - |
| 1777830754 | 20° C | 38% | 973.5 hPa | - | - | - | - |
| 1777829914 | 20.56° C | 37% | 973.4 hPa | - | - | - | - |
| 1777829074 | 21.11° C | 35% | 973.3 hPa | - | - | - | - |
| 1777828234 | 22.22° C | 33% | 973.3 hPa | - | - | - | - |
| 1777827394 | 22.22° C | 32% | 973.3 hPa | - | - | - | - |
| 1777826549 | 22.22° C | 31% | 973.2 hPa | - | - | - | - |
| 1777825709 | 22.78° C | 30% | 973.2 hPa | - | - | - | - |
| 1777824869 | 22.78° C | 29% | 973.2 hPa | - | - | - | - |
| 1777824029 | 23.33° C | 29% | 973.4 hPa | - | - | - | - |
| 1777823189 | 23.89° C | 29% | 973.4 hPa | - | - | - | - |
| 1777822349 | 23.89° C | 30% | 973.4 hPa | - | - | - | - |
* Rain since midnight (hover to see other rain measurements)
** Current wind speed in m/s (hover to see current wind gust speed)